Manistique, MI

2:35 AM EDT on March 25, 2017 (GMT -0400)
Schoolcraft County

Weather History for KISQ - April, 2014

Change the Weather History Date:

Thursday, April 3, 2014

  Actual Average Record
Temperature  
Mean Temperature 24 °F -  
Max Temperature 36 °F 41 °F 54 °F (1958)
Min Temperature 13 °F 25 °F 2 °F (1954)
Degree Days  
Heating Degree Days 40    
Moisture  
Dew Point 19 °F    
Average Humidity 74    
Maximum Humidity 91    
Minimum Humidity 55    
Precipitation  
Precipitation 0.00 in - - ()
Sea Level Pressure  
Sea Level Pressure 30.15 in    
Wind  
Wind Speed 6 mph (ENE)    
Max Wind Speed 17 mph    
Max Gust Speed 25 mph    
Visibility 10 miles    
Events      
Averages and records for this station are not official NWS values.
T = Trace of Precipitation, MM = Missing Value Source: NWS Daily Summary

Daily Weather History Graph

Daily Weather History Graph

Search for Another Location

Airport or City:

Trip Planner

Search our weather history database for the weather conditions in past years. The results will help you decide how hot, cold, wet, or windy it might be!

Date:

Astronomy

Apr. 03, 2014 Rise Set
Actual Time 7:20 AM EDT 8:15 PM EDT
Civil Twilight 6:50 AM EDT 8:46 PM EDT
Nautical Twilight 6:14 AM EDT 9:22 PM EDT
Astronomical Twilight 5:36 AM EDT 10:00 PM EDT
Moon 9:38 AM EDT (4/3) No Moon Set
Length of Visible Light 13h 55m
Length of Day
12h 55m
Waxing Crescent, 17% of the Moon is Illuminated
Apr 3
Waxing Crescent
Apr 7
First Quarter
Apr 15
Full
Apr 22
Last Quarter
Apr 29
New

Hourly Weather History & Observations

Time (EDT) Temp. Windchill Dew Point Humidity Pressure Visibility Wind Dir Wind Speed Gust Speed Precip Events Conditions
12:15 AM 23.4 °F 17.4 °F 15.8 °F 73% 30.26 in 10.0 mi WNW 4.6 mph - N/A   Clear
12:35 AM 22.5 °F - 15.6 °F 75% 30.26 in 10.0 mi Calm Calm - N/A   Clear
12:54 AM 21.9 °F 15.7 °F 15.8 °F 77% 30.26 in 10.0 mi NW 4.6 mph - N/A   Clear
1:15 AM 21.9 °F - 16.2 °F 78% 30.26 in 10.0 mi Calm Calm - N/A   Clear
1:35 AM 18.7 °F - 14.2 °F 83% 30.27 in 10.0 mi Calm Calm - N/A   Clear
1:55 AM 19.2 °F - 15.6 °F 86% 30.27 in 10.0 mi Calm Calm - N/A   Clear
2:15 AM 18.7 °F - 15.3 °F 87% 30.26 in 10.0 mi Calm Calm - N/A   Clear
2:34 AM 16.9 °F - 14.5 °F 91% 30.27 in 10.0 mi Calm Calm - N/A   Clear
2:55 AM 18.0 °F - 14.9 °F 88% 30.27 in 10.0 mi Calm Calm - N/A   Clear
3:14 AM 15.8 °F - 13.3 °F 90% 30.26 in 10.0 mi Calm Calm - N/A   Clear
3:35 AM 16.2 °F - 14.0 °F 91% 30.25 in 10.0 mi Calm Calm - N/A   Clear
3:55 AM 15.3 °F 4.4 °F 12.9 °F 90% 30.25 in 10.0 mi SSW 8.1 mph - N/A   Clear
4:14 AM 17.2 °F - 14.5 °F 89% 30.24 in 10.0 mi Calm Calm - N/A   Clear
4:35 AM 15.1 °F - 12.9 °F 91% 30.23 in 10.0 mi Calm Calm - N/A   Clear
4:55 AM 14.2 °F - 12.0 °F 91% 30.24 in 10.0 mi Calm Calm - N/A   Clear
5:14 AM 13.8 °F - 11.7 °F 91% 30.26 in 10.0 mi Calm Calm - N/A   Clear
5:35 AM 14.0 °F 5.1 °F 11.8 °F 91% 30.24 in 10.0 mi NNW 5.8 mph - N/A   Clear
5:55 AM 16.2 °F 10.6 °F 14.0 °F 91% 30.24 in 10.0 mi North 3.5 mph - N/A   Clear
6:14 AM 15.8 °F 6.1 °F 13.5 °F 90% 30.23 in 10.0 mi North 6.9 mph - N/A   Clear
6:35 AM 16.3 °F 9.2 °F 14.2 °F 91% 30.23 in 10.0 mi NNW 4.6 mph - N/A   Clear
6:54 AM 16.7 °F 9.6 °F 14.2 °F 90% 30.24 in 10.0 mi NNW 4.6 mph - N/A   Scattered Clouds
7:15 AM 17.1 °F 11.7 °F 14.7 °F 91% 30.24 in 10.0 mi North 3.5 mph - N/A   Scattered Clouds
7:35 AM 18.3 °F 11.5 °F 16.0 °F 91% 30.24 in 10.0 mi NNW 4.6 mph - N/A   Scattered Clouds
7:54 AM 19.9 °F 12.1 °F 17.4 °F 90% 30.24 in 10.0 mi NNE 5.8 mph - N/A   Mostly Cloudy
8:15 AM 20.3 °F 10.6 °F 17.6 °F 89% 30.22 in 10.0 mi NE 8.1 mph - N/A   Scattered Clouds
8:35 AM 21.4 °F 13.8 °F 18.5 °F 89% 30.22 in 10.0 mi ENE 5.8 mph - N/A   Scattered Clouds
8:54 AM 22.8 °F 14.5 °F 19.2 °F 86% 30.21 in 10.0 mi NE 6.9 mph - N/A   Mostly Cloudy
9:15 AM 24.1 °F 17.0 °F 19.4 °F 82% 30.21 in 10.0 mi NE 5.8 mph - N/A   Overcast
9:35 AM 25.7 °F - 19.9 °F 79% 30.21 in 10.0 mi North - - N/A   Overcast
9:55 AM 26.8 °F 17.7 °F 20.3 °F 77% 30.21 in 10.0 mi ENE 9.2 mph - N/A   Overcast
10:15 AM 28.0 °F - 20.3 °F 73% 30.21 in 10.0 mi North - - N/A   Overcast
10:34 AM 28.8 °F 20.2 °F 20.3 °F 71% 30.20 in 10.0 mi ENE 9.2 mph 17.3 mph N/A   Overcast
10:55 AM 29.7 °F 21.3 °F 20.7 °F 69% 30.19 in 10.0 mi East 9.2 mph - N/A   Overcast
11:15 AM 30.6 °F 22.4 °F 20.3 °F 66% 30.20 in 10.0 mi East 9.2 mph 18.4 mph N/A   Overcast
11:34 AM 30.6 °F 20.2 °F 20.7 °F 67% 30.20 in 10.0 mi ESE 13.8 mph 20.7 mph N/A   Overcast
11:55 AM 31.5 °F 22.3 °F 20.8 °F 65% 30.19 in 10.0 mi East 11.5 mph 17.3 mph N/A   Overcast
12:14 PM 31.6 °F 22.6 °F 20.8 °F 64% 30.18 in 10.0 mi East 11.5 mph 25.3 mph N/A   Overcast
12:35 PM 32.0 °F 22.5 °F 20.7 °F 63% 30.17 in 10.0 mi East 12.7 mph 19.6 mph N/A   Overcast
12:55 PM 32.0 °F 24.2 °F 21.4 °F 65% 30.17 in 10.0 mi East 9.2 mph 17.3 mph N/A   Overcast
1:14 PM 32.0 °F 20.8 °F 21.0 °F 64% 30.16 in 10.0 mi East 17.3 mph 20.7 mph N/A   Overcast
1:35 PM 32.5 °F 22.7 °F 20.7 °F 62% 30.15 in 10.0 mi East 13.8 mph 23.0 mph N/A   Overcast
1:55 PM 32.9 °F 25.3 °F 20.7 °F 61% 30.14 in 10.0 mi East 9.2 mph 18.4 mph N/A   Overcast
2:15 PM 33.8 °F 23.9 °F 21.6 °F 61% 30.13 in 10.0 mi ENE 15.0 mph 19.6 mph N/A   Overcast
2:35 PM 34.0 °F 25.0 °F 22.1 °F 62% 30.12 in 10.0 mi East 12.7 mph 20.7 mph N/A   Overcast
2:54 PM 34.2 °F 24.4 °F 21.6 °F 60% 30.12 in 10.0 mi East 15.0 mph 19.6 mph N/A   Overcast
3:15 PM 34.7 °F 25.1 °F 21.9 °F 60% 30.11 in 10.0 mi ENE 15.0 mph - N/A   Overcast
3:35 PM 35.1 °F 25.2 °F 21.9 °F 59% 30.10 in 10.0 mi ENE 16.1 mph 21.9 mph N/A   Overcast
3:54 PM 35.1 °F 26.9 °F 21.2 °F 57% 30.09 in 10.0 mi East 11.5 mph 21.9 mph N/A   Overcast
4:15 PM 36.0 °F 28.5 °F 21.2 °F 55% 30.08 in 10.0 mi East 10.4 mph 21.9 mph N/A   Overcast
4:35 PM 36.3 °F 26.4 °F 21.7 °F 56% 30.07 in 10.0 mi East 17.3 mph 21.9 mph N/A   Overcast
4:54 PM 36.5 °F 29.7 °F 21.7 °F 55% 30.05 in 10.0 mi East 9.2 mph 20.7 mph N/A   Overcast
5:15 PM 36.5 °F 26.7 °F 22.3 °F 56% 30.03 in 10.0 mi ENE 17.3 mph 20.7 mph N/A   Overcast
5:34 PM 36.1 °F 28.2 °F 21.6 °F 56% 30.02 in 10.0 mi East 11.5 mph 21.9 mph N/A   Overcast
5:55 PM 34.7 °F 27.5 °F 23.4 °F 63% 30.02 in 10.0 mi ESE 9.2 mph - N/A   Overcast
6:14 PM 33.8 °F 27.0 °F 24.3 °F 68% 30.03 in 10.0 mi East 8.1 mph - N/A   Overcast
6:35 PM 34.0 °F 28.0 °F 23.9 °F 67% 30.03 in 10.0 mi East 6.9 mph - N/A   Overcast
6:55 PM 33.8 °F 27.0 °F 23.7 °F 67% 30.03 in 10.0 mi East 8.1 mph 20.7 mph N/A   Overcast
7:14 PM 33.1 °F 26.1 °F 23.9 °F 69% 30.03 in 10.0 mi East 8.1 mph 21.9 mph N/A   Overcast
7:35 PM 33.1 °F 25.5 °F 24.3 °F 70% 30.02 in 10.0 mi East 9.2 mph - N/A   Overcast
7:55 PM 33.3 °F 27.9 °F 23.5 °F 68% 30.01 in 10.0 mi East 5.8 mph - N/A   Overcast
8:14 PM 33.3 °F 25.1 °F 23.4 °F 67% 30.01 in 10.0 mi East 10.4 mph - N/A   Overcast
8:35 PM 33.1 °F 26.1 °F 23.0 °F 66% 30.00 in 10.0 mi East 8.1 mph - N/A   Overcast
8:55 PM 33.1 °F 26.9 °F 22.6 °F 66% 29.98 in 10.0 mi East 6.9 mph 20.7 mph N/A   Overcast
9:15 PM 33.3 °F 27.1 °F 22.3 °F 64% 29.98 in 10.0 mi East 6.9 mph 19.6 mph N/A   Overcast
9:35 PM 33.8 °F 27.0 °F 22.5 °F 63% 29.97 in 10.0 mi East 8.1 mph 20.7 mph N/A   Overcast
9:54 PM 34.0 °F 25.5 °F 22.1 °F 62% 29.97 in 10.0 mi East 11.5 mph 18.4 mph N/A   Overcast
10:15 PM 33.8 °F 25.8 °F 22.8 °F 64% 29.96 in 10.0 mi East 10.4 mph 16.1 mph N/A   Overcast
10:34 PM 33.8 °F 26.4 °F 23.4 °F 66% 29.97 in 10.0 mi ENE 9.2 mph - N/A   Overcast
11:55 PM 34.9 °F 28.3 °F 23.4 °F 63% 29.94 in 10.0 mi ENE 8.1 mph - N/A   Overcast